Location: Unspecified
(0.0000°N, 0.0000°E)
Time: 10:25:15
(UTC+02:00)

Cosmos 1812 Rocket - Visible Passes

Search period start: 30 May 2015 00:00
Search period end: 09 June 2015 00:00
Orbit: 606 x 633 km, 82.5° (Epoch: 30 May)

Date Brightness Start Highest point End Pass type
(mag) Time Alt. Az. Time Alt. Az. Time Alt. Az.
30 May 5.0 22:08:02 10° NNW 22:11:23 34° WNW 22:11:23 34° WNW visible
31 May 4.9 20:48:59 10° NE 20:51:51 18° E 20:52:32 18° E visible
31 May 6.1 22:26:53 10° NW 22:29:39 16° W 22:29:46 16° W visible
01 Jun 3.9 21:05:25 10° NNE 21:09:28 41° E 21:10:58 30° SE visible
02 Jun 3.5 21:22:43 10° N 21:27:02 80° W 21:29:27 26° S visible
03 Jun 5.2 21:40:42 10° NNW 21:44:36 32° W 21:47:58 13° SSW visible
04 Jun 4.9 20:21:21 10° NE 20:24:28 20° E 20:27:44 10° SE visible
04 Jun 6.4 21:59:45 10° WNW 22:02:15 14° W 22:04:30 10° SW visible
05 Jun 3.8 20:37:55 10° NNE 20:42:03 46° E 20:46:15 10° SSE visible
06 Jun 3.8 20:55:19 10° N 20:59:36 71° W 21:03:57 10° S visible
07 Jun 5.5 21:13:23 10° NNW 21:17:11 29° W 21:20:57 10° SSW visible
08 Jun 6.5 21:32:42 10° WNW 21:34:51 13° W 21:36:44 10° WSW visible
